Paynesville, MN

6:01 PM CDT on June 24, 2017 (GMT -0500)
Paynesville

Weather History for KPEX - August, 2013

Change the Weather History Date:

Thursday, August 8, 2013

  Actual Average (KLJF) Record (KLJF)
Temperature  
Mean Temperature 62 °F -  
Max Temperature 74 °F 82 °F 97 °F (1983)
Min Temperature 52 °F 61 °F 45 °F (1964)
Degree Days  
Heating Degree Days 2    
Growing Degree Days 12 (Base 50)    
Moisture  
Dew Point 56 °F    
Average Humidity 82    
Maximum Humidity 98    
Minimum Humidity 55    
Precipitation  
Precipitation 0.09 in - - ()
Sea Level Pressure  
Sea Level Pressure 30.03 in    
Wind  
Wind Speed 1 mph (SSW)    
Max Wind Speed 9 mph    
Max Gust Speed -    
Visibility 10 miles    
Events Rain    
Averages and records for this station are not official NWS values.
T = Trace of Precipitation, MM = Missing Value Source: NWS Daily Summary

Daily Weather History Graph

Daily Weather History Graph

Search for Another Location

Airport or City:

Trip Planner

Search our weather history database for the weather conditions in past years. The results will help you decide how hot, cold, wet, or windy it might be!

Date:

Astronomy

Aug. 08, 2013 Rise Set
Actual Time 6:11 AM CDT 8:36 PM CDT
Civil Twilight 5:38 AM CDT 9:09 PM CDT
Nautical Twilight 4:57 AM CDT 9:50 PM CDT
Astronomical Twilight 4:10 AM CDT 10:36 PM CDT
Moon 8:07 AM CDT (8/8) 9:05 PM CDT (8/8)
Length of Visible Light 15h 30m
Length of Day
14h 24m
Waxing Crescent, 3% of the Moon is Illuminated
Aug 8
Waxing Crescent
Aug 14
First Quarter
Aug 20
Full
Aug 28
Last Quarter
Sep 5
New

Hourly Weather History & Observations

Time (CDT) Temp. Dew Point Humidity Pressure Visibility Wind Dir Wind Speed Gust Speed Precip Events Conditions
12:12 AM 55.4 °F 54.1 °F 96% 30.04 in 10.0 mi Calm Calm - N/A   Clear
12:33 AM 54.7 °F 53.6 °F 96% 30.04 in 10.0 mi Calm Calm - N/A   Clear
12:53 AM 54.5 °F 53.2 °F 96% 30.04 in 10.0 mi Calm Calm - N/A   Clear
1:12 AM 54.0 °F 52.9 °F 96% 30.04 in 10.0 mi Calm Calm - N/A   Clear
1:33 AM 53.8 °F 52.7 °F 96% 30.04 in 10.0 mi Calm Calm - N/A   Clear
1:53 AM 53.6 °F 52.7 °F 97% 30.05 in 10.0 mi Calm Calm - N/A   Clear
2:13 AM 53.6 °F 52.7 °F 97% 30.04 in 10.0 mi Calm Calm - N/A   Clear
2:32 AM 53.6 °F 52.7 °F 97% 30.04 in 10.0 mi Calm Calm - N/A   Scattered Clouds
2:53 AM 53.6 °F 52.3 °F 95% 30.04 in 10.0 mi Calm Calm - N/A   Scattered Clouds
3:13 AM 52.9 °F 52.0 °F 97% 30.04 in 10.0 mi Calm Calm - N/A   Clear
3:33 AM 54.5 °F 53.8 °F 97% 30.03 in 10.0 mi Calm Calm - N/A   Scattered Clouds
3:53 AM 54.5 °F 53.4 °F 96% 30.03 in 10.0 mi Calm Calm - N/A   Mostly Cloudy
4:13 AM 54.1 °F 53.2 °F 97% 30.02 in 10.0 mi Calm Calm - N/A   Scattered Clouds
4:32 AM 53.6 °F 52.7 °F 97% 30.02 in 10.0 mi Calm Calm - N/A   Clear
4:53 AM 53.8 °F 53.1 °F 97% 30.02 in 10.0 mi Calm Calm - N/A   Scattered Clouds
5:13 AM 54.7 °F 53.8 °F 97% 30.01 in 10.0 mi Calm Calm - N/A   Mostly Cloudy
5:32 AM 54.7 °F 53.8 °F 97% 30.01 in 10.0 mi Calm Calm - N/A   Scattered Clouds
5:53 AM 55.2 °F 54.3 °F 97% 30.01 in 10.0 mi Calm Calm - N/A   Mostly Cloudy
6:12 AM 55.6 °F 54.7 °F 97% 30.01 in 10.0 mi Calm Calm - N/A   Overcast
6:33 AM 55.9 °F 55.4 °F 98% 30.02 in 10.0 mi Calm Calm - N/A   Overcast
6:53 AM 55.9 °F 55.0 °F 97% 30.03 in 10.0 mi Calm Calm - N/A   Mostly Cloudy
7:13 AM 56.5 °F 55.6 °F 97% 30.04 in 10.0 mi Calm Calm - N/A   Overcast
7:32 AM 56.8 °F 55.8 °F 96% 30.04 in 10.0 mi Calm Calm - N/A   Overcast
7:53 AM 59.0 °F 57.2 °F 94% 30.05 in 10.0 mi Calm Calm - N/A   Overcast
8:13 AM 60.4 °F 55.9 °F 85% 30.06 in 10.0 mi South 3.5 mph - N/A   Mostly Cloudy
8:33 AM 60.6 °F 55.8 °F 84% 30.06 in 10.0 mi SSW 4.6 mph - N/A   Mostly Cloudy
8:53 AM 61.0 °F 56.3 °F 85% 30.06 in 10.0 mi SSW 4.6 mph - N/A   Overcast
9:12 AM 61.2 °F 57.0 °F 86% 30.06 in 10.0 mi SSW 3.5 mph - N/A   Overcast
9:33 AM 61.9 °F 56.7 °F 83% 30.08 in 10.0 mi SW 6.9 mph - N/A   Overcast
9:53 AM 63.0 °F 55.8 °F 77% 30.08 in 10.0 mi SSW 4.6 mph - N/A   Overcast
10:12 AM 63.5 °F 55.6 °F 75% 30.08 in 10.0 mi SSW 5.8 mph - N/A   Overcast
10:33 AM 64.9 °F 56.5 °F 74% 30.08 in 10.0 mi SW 6.9 mph - N/A   Scattered Clouds
10:53 AM 65.3 °F 55.2 °F 70% 30.07 in 10.0 mi SSW 9.2 mph - N/A   Mostly Cloudy
11:12 AM 65.7 °F 54.7 °F 68% 30.07 in 10.0 mi SW 8.1 mph - N/A   Overcast
11:33 AM 66.2 °F 55.0 °F 67% 30.07 in 10.0 mi SW 8.1 mph - N/A   Mostly Cloudy
11:53 AM 67.3 °F 56.5 °F 68% 30.06 in 10.0 mi SW 6.9 mph - N/A   Scattered Clouds
12:13 PM 68.4 °F 57.2 °F 67% 30.06 in 10.0 mi WSW 6.9 mph - N/A   Scattered Clouds
12:33 PM 68.4 °F 56.8 °F 67% 30.06 in 10.0 mi South 4.6 mph - N/A   Scattered Clouds
12:53 PM 68.7 °F 56.5 °F 65% 30.05 in 10.0 mi Calm Calm - N/A   Scattered Clouds
1:12 PM 69.8 °F 56.5 °F 63% 30.05 in 10.0 mi South 4.6 mph - N/A   Scattered Clouds
1:33 PM 70.9 °F 56.5 °F 60% 30.05 in 10.0 mi South 3.5 mph - N/A   Scattered Clouds
1:52 PM 71.8 °F 55.9 °F 57% 30.05 in 10.0 mi SW 4.6 mph - N/A   Clear
2:13 PM 72.5 °F 55.4 °F 55% 30.04 in 10.0 mi SSW 4.6 mph - N/A   Clear
2:32 PM 72.5 °F 56.1 °F 56% 30.04 in 10.0 mi WSW 5.8 mph - N/A   Clear
2:53 PM 72.7 °F 56.7 °F 57% 30.04 in 10.0 mi SSW 5.8 mph - N/A   Scattered Clouds
3:13 PM 73.0 °F 57.2 °F 57% 30.03 in 10.0 mi WSW 3.5 mph - N/A   Mostly Cloudy
3:33 PM 72.3 °F 57.4 °F 59% 30.02 in 10.0 mi SW 3.5 mph - N/A   Mostly Cloudy
3:53 PM 71.8 °F 57.0 °F 60% 30.02 in 10.0 mi Calm Calm - N/A   Mostly Cloudy
4:13 PM 72.0 °F 57.6 °F 60% 30.02 in 10.0 mi SSW 3.5 mph - N/A   Mostly Cloudy
4:33 PM 71.1 °F 56.7 °F 60% 30.01 in 10.0 mi Calm Calm - N/A   Overcast
4:52 PM 70.9 °F 57.4 °F 62% 30.01 in 10.0 mi Calm Calm - N/A   Overcast
5:13 PM 71.1 °F 57.2 °F 61% 30.01 in 10.0 mi Calm Calm - N/A   Mostly Cloudy
5:33 PM 70.9 °F 58.3 °F 64% 30.01 in 10.0 mi Calm Calm - N/A   Overcast
5:53 PM 70.9 °F 57.6 °F 63% 30.01 in 10.0 mi Calm Calm - N/A   Overcast
6:13 PM 70.7 °F 59.9 °F 69% 30.01 in 10.0 mi Calm Calm - N/A   Mostly Cloudy
6:32 PM 70.3 °F 60.1 °F 70% 30.01 in 10.0 mi Calm Calm - N/A   Mostly Cloudy
6:53 PM 69.8 °F 60.8 °F 73% 30.01 in 10.0 mi Calm Calm - N/A   Overcast
7:12 PM 68.0 °F 62.1 °F 81% 30.01 in 3.0 mi SSW 3.5 mph - 0.07 in Rain Heavy Rain
7:33 PM 67.3 °F 62.2 °F 84% 30.00 in 10.0 mi SW 4.6 mph - 0.09 in   Overcast
7:53 PM 66.7 °F 61.5 °F 83% 30.01 in 10.0 mi SW 3.5 mph - 0.09 in Rain Light Rain
8:13 PM 66.2 °F 61.7 °F 85% 30.01 in 10.0 mi Calm Calm - N/A   Mostly Cloudy
8:32 PM 64.8 °F 62.2 °F 92% 30.01 in 10.0 mi Calm Calm - N/A   Scattered Clouds
8:53 PM 63.5 °F 61.3 °F 93% 30.01 in 10.0 mi Calm Calm - N/A   Scattered Clouds
9:12 PM 62.6 °F 61.0 °F 94% 30.02 in 10.0 mi Calm Calm - N/A   Clear
9:33 PM 61.5 °F 59.9 °F 94% 30.02 in 10.0 mi Calm Calm - N/A   Clear
9:52 PM 60.3 °F 59.0 °F 96% 30.02 in 10.0 mi Calm Calm - N/A   Clear
10:13 PM 59.4 °F 58.3 °F 96% 30.02 in 10.0 mi Calm Calm - N/A   Clear
10:32 PM 58.5 °F 57.6 °F 97% 30.02 in 7.0 mi Calm Calm - N/A   Clear
10:53 PM 58.3 °F 57.4 °F 97% 30.02 in 7.0 mi Calm Calm - N/A   Clear
11:13 PM 57.9 °F 57.2 °F 97% 30.03 in 7.0 mi Calm Calm - N/A   Clear
11:32 PM 57.2 °F 56.5 °F 97% 30.03 in 7.0 mi Calm Calm - N/A   Clear
11:53 PM 57.2 °F 56.5 °F 97% 30.03 in 5.0 mi Calm Calm - N/A   Clear